KQA601 HKKI-HKJK

Flight info

Callsign KQA601
Flight time 0h 32m
Altitude 23000
Route IBSUL1B IBSUL DCT NAKAT NAKAT4A
Aircraft B738/M-SDE1E2E3FGHIJ2J3J4J5M1RWXYZ/LB1D1

Departure

Time 2026-04-20 20:29
Airport Kisumu International Airport (HKKI)

Arrival

Time 2026-04-20 21:01
Airport Jomo Kenyatta International Airport (HKJK)
Time Latitude Longitude Altitude Speed Heading
2026-04-20 20:08 -0.08260 34.72900 3776 ft 0 kts 64°
2026-04-20 20:20 -0.08260 34.72901 3776 ft 0 kts 64°
2026-04-20 20:20 -0.08259 34.72901 3776 ft 0 kts 64°
2026-04-20 20:22 -0.08259 34.72902 3776 ft 0 kts 63°
2026-04-20 20:22 -0.08258 34.72903 3776 ft 0 kts 63°
2026-04-20 20:23 -0.08257 34.72905 3776 ft 0 kts 64°
2026-04-20 20:23 -0.08257 34.72907 3785 ft 0 kts 64°
2026-04-20 20:23 -0.08256 34.72907 3785 ft 0 kts 64°
2026-04-20 20:23 -0.08256 34.72909 3784 ft 0 kts 64°
2026-04-20 20:24 -0.08254 34.72910 3784 ft 0 kts 58°
2026-04-20 20:24 -0.08254 34.72911 3784 ft 0 kts 58°
2026-04-20 20:25 -0.08267 34.72962 3778 ft 19 kts 139°
2026-04-20 20:25 -0.08393 34.73033 3781 ft 17 kts 149°
2026-04-20 20:25 -0.08465 34.73112 3781 ft 16 kts 85°
2026-04-20 20:25 -0.08419 34.73211 3780 ft 16 kts 61°
2026-04-20 20:26 -0.08368 34.73304 3783 ft 15 kts 62°
2026-04-20 20:26 -0.08320 34.73393 3781 ft 14 kts 62°
2026-04-20 20:26 -0.08274 34.73479 3779 ft 14 kts 62°
2026-04-20 20:26 -0.08229 34.73560 3785 ft 13 kts 58°
2026-04-20 20:27 -0.08158 34.73611 3776 ft 12 kts 30°
2026-04-20 20:27 -0.08128 34.73650 3778 ft 7 kts 89°
2026-04-20 20:27 -0.08159 34.73672 3776 ft 6 kts 190°
2026-04-20 20:27 -0.08186 34.73640 3776 ft 6 kts 241°
2026-04-20 20:28 -0.08201 34.73615 3775 ft 7 kts 241°
2026-04-20 20:28 -0.08367 34.73306 3782 ft 83 kts 242°
2026-04-20 20:28 -0.08744 34.72609 3777 ft 144 kts 241°
2026-04-20 20:28 -0.09292 34.71575 3820 ft 189 kts 244°
2026-04-20 20:29 -0.09872 34.70389 4677 ft 183 kts 245°
2026-04-20 20:29 -0.10724 34.69507 5490 ft 184 kts 201°
2026-04-20 20:29 -0.12019 34.69515 5950 ft 203 kts 155°
2026-04-20 20:29 -0.13242 34.70360 6188 ft 227 kts 143°
2026-04-20 20:30 -0.14585 34.71333 6380 ft 249 kts 145°
2026-04-20 20:30 -0.16043 34.72338 6786 ft 258 kts 146°
2026-04-20 20:30 -0.17547 34.73337 7322 ft 261 kts 146°
2026-04-20 20:30 -0.19070 34.74322 7898 ft 262 kts 146°
2026-04-20 20:31 -0.20615 34.75301 8427 ft 265 kts 146°
2026-04-20 20:31 -0.22186 34.76283 8968 ft 267 kts 147°
2026-04-20 20:31 -0.23770 34.77264 9507 ft 269 kts 146°
2026-04-20 20:31 -0.25376 34.78252 10031 ft 272 kts 146°
2026-04-20 20:32 -0.26988 34.79240 10556 ft 273 kts 146°
2026-04-20 20:32 -0.28616 34.80234 11055 ft 275 kts 146°
2026-04-20 20:32 -0.30256 34.81235 11549 ft 277 kts 146°
2026-04-20 20:32 -0.31348 34.81900 11883 ft 278 kts 146°
2026-04-20 20:33 -0.33003 34.82908 12382 ft 279 kts 146°
2026-04-20 20:33 -0.34663 34.83919 12859 ft 281 kts 146°
2026-04-20 20:33 -0.36327 34.84933 13357 ft 282 kts 146°
2026-04-20 20:33 -0.38552 34.86287 13990 ft 284 kts 146°
2026-04-20 20:34 -0.39696 34.86983 14274 ft 285 kts 146°
2026-04-20 20:34 -0.41393 34.88016 14683 ft 287 kts 146°
2026-04-20 20:34 -0.43099 34.89063 15103 ft 288 kts 143°
2026-04-20 20:34 -0.44565 34.90404 15516 ft 286 kts 129°
2026-04-20 20:35 -0.45857 34.91917 15945 ft 287 kts 128°
2026-04-20 20:35 -0.47134 34.93462 16337 ft 289 kts 127°
2026-04-20 20:35 -0.48417 34.95016 16734 ft 291 kts 128°
2026-04-20 20:35 -0.49709 34.96573 17125 ft 292 kts 128°
2026-04-20 20:36 -0.51016 34.98139 17514 ft 294 kts 128°
2026-04-20 20:36 -0.52336 34.99714 17882 ft 298 kts 128°
2026-04-20 20:36 -0.53693 35.01328 18044 ft 311 kts 128°
2026-04-20 20:36 -0.55122 35.03026 18135 ft 330 kts 128°
2026-04-20 20:37 -0.56641 35.04829 18286 ft 349 kts 128°
2026-04-20 20:37 -0.58246 35.06730 18414 ft 366 kts 128°
2026-04-20 20:37 -0.59915 35.08704 18643 ft 377 kts 128°
2026-04-20 20:37 -0.61621 35.10719 18995 ft 379 kts 128°
2026-04-20 20:38 -0.63337 35.12745 19036 ft 386 kts 128°
2026-04-20 20:38 -0.65080 35.14805 19047 ft 388 kts 128°
2026-04-20 20:38 -0.66823 35.16863 19051 ft 386 kts 128°
2026-04-20 20:38 -0.68554 35.18908 19060 ft 385 kts 128°
2026-04-20 20:39 -0.70280 35.20948 19070 ft 385 kts 128°
2026-04-20 20:39 -0.72007 35.22990 19064 ft 384 kts 128°
2026-04-20 20:39 -0.73726 35.25022 19072 ft 384 kts 128°
2026-04-20 20:39 -0.75459 35.27071 19073 ft 385 kts 128°
2026-04-20 20:40 -0.77187 35.29115 19079 ft 385 kts 128°
2026-04-20 20:40 -0.78914 35.31157 19079 ft 385 kts 128°
2026-04-20 20:40 -0.80641 35.33199 19084 ft 386 kts 128°
2026-04-20 20:40 -0.82354 35.35224 19086 ft 386 kts 128°
2026-04-20 20:41 -0.84009 35.37327 19087 ft 385 kts 120°
2026-04-20 20:41 -0.85307 35.39660 19095 ft 384 kts 116°
2026-04-20 20:41 -0.86504 35.42037 19093 ft 384 kts 115°
2026-04-20 20:41 -0.87681 35.44433 19097 ft 384 kts 115°
2026-04-20 20:42 -0.88864 35.46834 19100 ft 384 kts 115°
2026-04-20 20:42 -0.90067 35.49252 19105 ft 384 kts 115°
2026-04-20 20:42 -0.91268 35.51641 19107 ft 384 kts 115°
2026-04-20 20:42 -0.92460 35.53995 19107 ft 385 kts 116°
2026-04-20 20:43 -0.93671 35.56374 19114 ft 384 kts 116°
2026-04-20 20:43 -0.94887 35.58755 19117 ft 384 kts 116°
2026-04-20 20:43 -0.96103 35.61135 19119 ft 384 kts 116°
2026-04-20 20:43 -0.97319 35.63511 19126 ft 385 kts 116°
2026-04-20 20:44 -0.98537 35.65894 19132 ft 385 kts 116°
2026-04-20 20:44 -0.99757 35.68279 19124 ft 385 kts 116°
2026-04-20 20:44 -1.00977 35.70663 19126 ft 385 kts 116°
2026-04-20 20:44 -1.02197 35.73048 19132 ft 385 kts 116°
2026-04-20 20:45 -1.03415 35.75431 19135 ft 385 kts 116°
2026-04-20 20:45 -1.04634 35.77815 19137 ft 385 kts 116°
2026-04-20 20:45 -1.05850 35.80192 19134 ft 385 kts 116°
2026-04-20 20:45 -1.07074 35.82585 19140 ft 385 kts 116°
2026-04-20 20:46 -1.08291 35.84965 19146 ft 385 kts 116°
2026-04-20 20:46 -1.09511 35.87351 19141 ft 385 kts 116°
2026-04-20 20:46 -1.10728 35.89731 19139 ft 385 kts 116°
2026-04-20 20:46 -1.11949 35.92119 19139 ft 385 kts 116°
2026-04-20 20:47 -1.13166 35.94499 19142 ft 385 kts 116°
2026-04-20 20:47 -1.14382 35.96879 19147 ft 385 kts 116°
2026-04-20 20:47 -1.15597 35.99254 19141 ft 385 kts 116°
2026-04-20 20:47 -1.16815 36.01637 19145 ft 384 kts 116°
2026-04-20 20:48 -1.18033 36.04019 19144 ft 384 kts 116°
2026-04-20 20:48 -1.19245 36.06390 19143 ft 382 kts 116°
2026-04-20 20:48 -1.20418 36.08682 19126 ft 367 kts 116°
2026-04-20 20:48 -1.21574 36.10941 19129 ft 356 kts 116°
2026-04-20 20:49 -1.22694 36.13132 19138 ft 353 kts 115°
2026-04-20 20:49 -1.23807 36.15312 19138 ft 353 kts 115°
2026-04-20 20:49 -1.24912 36.17475 18883 ft 354 kts 115°
2026-04-20 20:49 -1.26026 36.19655 18557 ft 352 kts 115°
2026-04-20 20:50 -1.27136 36.21826 18157 ft 350 kts 115°
2026-04-20 20:50 -1.28239 36.23986 17713 ft 347 kts 115°
2026-04-20 20:50 -1.29331 36.26122 17299 ft 344 kts 115°
2026-04-20 20:50 -1.30414 36.28240 16879 ft 341 kts 115°
2026-04-20 20:51 -1.31487 36.30342 16460 ft 339 kts 115°
2026-04-20 20:51 -1.32556 36.32435 16068 ft 336 kts 116°
2026-04-20 20:51 -1.33616 36.34509 15672 ft 335 kts 116°
2026-04-20 20:51 -1.34674 36.36578 15279 ft 333 kts 116°
2026-04-20 20:52 -1.35660 36.38665 14756 ft 334 kts 111°
2026-04-20 20:52 -1.36489 36.40844 14288 ft 335 kts 109°
2026-04-20 20:52 -1.37263 36.43038 13841 ft 335 kts 109°
2026-04-20 20:52 -1.38031 36.45231 13406 ft 333 kts 109°
2026-04-20 20:53 -1.38801 36.47403 12998 ft 331 kts 109°
2026-04-20 20:53 -1.39315 36.48837 12694 ft 330 kts 109°
2026-04-20 20:53 -1.39558 36.49513 12419 ft 333 kts 109°
2026-04-20 20:54 -1.40285 36.51517 11801 ft 340 kts 109°
2026-04-20 20:54 -1.41094 36.53735 11286 ft 337 kts 109°
2026-04-20 20:54 -1.41889 36.55904 10934 ft 329 kts 109°
2026-04-20 20:54 -1.42672 36.58037 10644 ft 324 kts 109°
2026-04-20 20:55 -1.43432 36.60108 10541 ft 312 kts 109°
2026-04-20 20:55 -1.44165 36.62102 10467 ft 300 kts 109°
2026-04-20 20:55 -1.44868 36.64017 10385 ft 288 kts 109°
2026-04-20 20:55 -1.45545 36.65859 10316 ft 277 kts 109°
2026-04-20 20:56 -1.46198 36.67637 10194 ft 269 kts 109°
2026-04-20 20:56 -1.46823 36.69370 10011 ft 263 kts 105°
2026-04-20 20:56 -1.46844 36.71158 9765 ft 259 kts 72°
2026-04-20 20:56 -1.46093 36.72782 9707 ft 256 kts 64°
2026-04-20 20:57 -1.45211 36.74367 9378 ft 266 kts 60°
2026-04-20 20:57 -1.44170 36.75925 9039 ft 274 kts 56°
2026-04-20 20:57 -1.43046 36.77470 8679 ft 275 kts 55°
2026-04-20 20:57 -1.41918 36.79005 8349 ft 273 kts 55°
2026-04-20 20:58 -1.40812 36.80523 7994 ft 267 kts 56°
2026-04-20 20:58 -1.39738 36.82002 7651 ft 258 kts 55°
2026-04-20 20:58 -1.38710 36.83419 7343 ft 248 kts 55°
2026-04-20 20:58 -1.37723 36.84777 7040 ft 232 kts 55°
2026-04-20 20:59 -1.36823 36.86015 6785 ft 208 kts 56°
2026-04-20 20:59 -1.36016 36.87125 6499 ft 187 kts 56°
2026-04-20 20:59 -1.35299 36.88113 6259 ft 168 kts 56°
2026-04-20 20:59 -1.34652 36.89005 6069 ft 148 kts 56°
2026-04-20 21:00 -1.34053 36.89831 5850 ft 145 kts 55°
2026-04-20 21:00 -1.33466 36.90638 5650 ft 143 kts 55°
2026-04-20 21:00 -1.32883 36.91442 5455 ft 142 kts 55°
2026-04-20 21:00 -1.32311 36.92241 5323 ft 136 kts 54°
2026-04-20 21:01 -1.31838 36.92897 5315 ft 90 kts 53°
2026-04-20 21:01 -1.31614 36.93204 5308 ft 34 kts 55°
2026-04-20 21:01 -1.31583 36.93337 5305 ft 16 kts 128°
2026-04-20 21:01 -1.31640 36.93381 5307 ft 0 kts 144°
2026-04-20 21:02 -1.31683 36.93412 5310 ft 13 kts 144°
2026-04-20 21:03 -1.31777 36.93477 5309 ft 17 kts 160°
2026-04-20 21:03 -1.31886 36.93389 5308 ft 27 kts 235°
2026-04-20 21:03 -1.32014 36.93213 5315 ft 36 kts 234°
2026-04-20 21:03 -1.32180 36.92986 5318 ft 44 kts 234°
2026-04-20 21:04 -1.32374 36.92720 5320 ft 45 kts 234°
2026-04-20 21:04 -1.32543 36.92490 5321 ft 23 kts 233°
2026-04-20 21:04 -1.32642 36.92360 5320 ft 17 kts 216°
2026-04-20 21:04 -1.32761 36.92386 5318 ft 15 kts 190°
2026-04-20 21:05 -1.32798 36.92387 5319 ft 6 kts 157°
2026-04-20 21:05 -1.32834 36.92401 5321 ft 5 kts 154°
2026-04-20 21:05 -1.32868 36.92417 5320 ft 5 kts 155°
2026-04-20 21:05 -1.32876 36.92421 5323 ft 1 kts 156°
2026-04-20 21:06 -1.32880 36.92422 5324 ft 1 kts 155°
2026-04-20 21:06 -1.32880 36.92423 5324 ft 0 kts 155°